Voltar ao catálogo

COSMOS 2159

AtivoNavegaçãoPO
NORAD 21730·PAYLOAD·🇷🇺 Russia

Lançado Sep 28, 1991 de Plesetsk Cosmodrome

Loading…

Próximas Passagens (próximas 24 horas)

TLE

AtualizadoSource: Space-Track

Época: Sep 14, 2026, 08:18 UTC

1 21730U 91068C   26257.34612501  .00000005  00000-0 -32039-4 0  9998
2 21730  82.5817 223.0824 0015042  74.2480  92.8406 12.66048676615517

Acompanhe COSMOS 2159 em tempo real com AllMySat

Download on the App Store